Location: Bonakalai
(6.4306°N, 10.5884°W)
Time: 02:52:04
(UTC+00:00)

Daily predictions for brighter satellites

Satellite Brightness Start Highest point End
(mag) Time Altitude Azimuth Time Altitude Azimuth Time Altitude Azimuth
CZ-3C R/B 4.5 03:37:20 15° S 03:37:20 15° S 03:42:25 10° SSE
FALCON 9 R/B 4.0 03:58:52 24° SE 03:59:11 24° SE 04:05:45 10° ENE
CZ-3C R/B 2.1 04:28:03 51° NE 04:28:03 51° NE 04:39:20 10° ESE
Meteor 2-1 Rocket 4.5 04:30:17 62° S 04:30:17 62° S 04:35:02 10° S
Cosmos 1934 Rocket 3.9 04:28:10 10° S 04:34:20 86° E 04:40:36 10° N
Cosmos 1340 Rocket 4.1 04:42:02 34° NE 04:42:58 39° E 04:46:44 10° SSE
Milstar 3 4.3 04:44:43 22° NNW 04:47:36 27° NNE 04:53:23 10° ENE
USA 267 3.5 04:41:16 10° NE 04:47:45 68° SE 04:54:14 10° SSW
Meteor 1-31 Rocket 3.5 04:46:39 30° NE 04:48:17 52° E 04:52:06 10° S
BLOCK DM-SL R/B 3.6 04:49:00 21° S 04:49:43 23° SSE 04:55:19 10° ESE
CZ-3B R/B 2.0 04:53:38 52° WNW 04:54:24 56° NNW 04:58:47 10° NE
Meteor 1-11 4.2 04:50:39 10° SSW 04:56:10 57° W 04:57:29 46° NW
STARLINK-69 4.1 04:55:41 25° SSW 04:57:56 58° ESE 05:01:59 10° NE
CZ-2C R/B 2.1 04:56:36 38° N 04:58:18 71° WNW 05:02:54 10° SSW
Meteor 2-10 Rocket 4.4 04:53:31 10° N 04:58:57 55° E 05:04:33 10° SSE
STARLINK-66 4.1 04:57:03 22° SSW 04:59:33 59° ESE 05:03:37 10° NE
STARLINK-41 4.0 04:58:41 22° SSW 05:01:14 63° SE 05:05:19 10° NE
STARLINK-64 3.8 05:00:30 23° SSW 05:02:54 68° ESE 05:06:58 10° NE
STARLINK-70 3.8 05:01:57 22° SSW 05:04:33 71° SE 05:08:40 10° NE
STARLINK-26 3.4 05:04:20 41° SSW 05:05:40 89° ESE 05:09:44 10° NE
SWIFT 2.5 05:05:11 48° SW 05:06:14 70° SSE 05:10:30 10° ENE
STARLINK-68 3.6 05:04:04 26° SSW 05:06:18 81° ESE 05:10:25 10° NE
ERBS 3.1 05:07:44 39° SSW 05:07:44 39° SSW 05:10:13 10° SSE
Cosmos 1000 Rocket 4.4 05:01:24 10° N 05:07:31 73° W 05:13:41 10° S
STARLINK-58 3.6 05:05:12 22° SSW 05:07:48 80° ESE 05:11:55 10° NE
Cosmos 1076 Rocket 3.7 05:04:08 10° S 05:08:28 70° E 05:12:48 10° N
STARLINK-62 3.5 05:07:13 25° SSW 05:09:34 89° SE 05:13:42 10° NE
STARLINK-63 3.5 05:08:25 20° SSW 05:11:11 88° ESE 05:15:19 10° NE
STARLINK 3.6 05:08:55 12° SSW 05:12:38 79° SE 05:16:45 10° NE
STARLINK-72 3.5 05:11:10 16° SW 05:14:25 89° WNW 05:18:33 10° NE
Cosmos 1605 Rocket 3.9 05:09:34 10° SSW 05:15:49 63° W 05:21:58 10° N
STARLINK-59 3.4 05:14:51 18° SW 05:17:49 75° NW 05:21:56 10° NNE
CZ-4B R/B 4.1 05:13:33 10° N 05:17:54 54° WNW 05:22:10 10° SSW
Cosmos 2058 3.3 05:13:56 10° S 05:18:05 65° E 05:22:15 10° NNE
STARLINK-57 3.4 05:16:23 17° SW 05:19:26 72° NW 05:23:33 10° NNE
STARLINK-61 4.3 05:20:43 33° NW 05:20:43 33° NW 05:23:50 10° NNE
Cosmos 1455 2.4 05:21:14 40° WNW 05:21:49 44° W 05:25:27 10° SSW
STARLINK-53 3.5 05:18:51 17° SW 05:21:55 65° NW 05:26:01 10° NNE
STARLINK-28 3.5 05:19:46 17° SW 05:22:49 63° NW 05:26:54 10° NNE
Cosmos 2123 Rocket 4.0 05:17:39 10° N 05:23:51 84° E 05:30:07 10° S
PSLV R/B 3.8 05:20:09 10° NNE 05:24:05 84° ESE 05:28:07 10° S
STARLINK-75 3.7 05:22:27 25° WSW 05:24:32 49° NW 05:28:32 10° NNE
Ariane H10-3 2.9 05:23:01 27° W 05:25:23 88° N 05:36:03 10° E
SL-27 R/B 2.5 05:22:47 10° SSW 05:26:01 44° WNW 05:29:11 10° N
STARLINK-54 3.6 05:22:59 16° SW 05:26:07 56° NW 05:30:10 10° NNE
Hubble Space Telescope 0.7 05:25:16 32° NW 05:27:05 83° NNE 05:31:13 10° ESE
deb Kosmos-1763 4.5 05:24:19 10° SW 05:27:45 38° WNW 05:31:11 10° N
STARLINK-37 3.7 05:25:38 16° SW 05:28:44 50° NW 05:32:46 10° NNE
Abrixas rocket 2.7 05:29:51 33° NNW 05:29:51 33° NNW 05:32:16 10° NNE
STARLINK-24 3.8 05:27:08 14° SW 05:30:28 49° NW 05:34:28 10° NNE
STARLINK-55 3.7 05:27:29 13° SW 05:31:02 50° NW 05:35:01 10° NNE
STARLINK-34 3.8 05:29:26 14° SW 05:32:45 45° NW 05:36:42 10° NNE
STARLINK-81 3.7 05:30:12 10° SW 05:34:13 50° NW 05:38:13 10° NNE
Cosmos 990 Rocket 4.2 05:31:19 10° SSW 05:36:09 43° WNW 05:41:01 10° N
STARLINK-77 3.9 05:33:34 10° SW 05:37:32 45° NW 05:41:29 10° NNE
STARLINK-25 3.9 05:35:16 10° SW 05:39:12 42° NW 05:43:07 10° NNE
STARLINK-71 4.2 05:37:30 11° WSW 05:41:02 35° NW 05:44:49 10° NNE
Cosmos 2221 2.7 05:37:25 10° N 05:41:47 78° E 05:46:08 10° S
STARLINK-79 4.1 05:38:40 10° SW 05:42:32 38° NW 05:46:24 10° NNE
SJ 16-02 1.8 05:39:01 10° SW 05:43:03 36° WNW 05:47:05 10° N
Cosmos 1842 Rocket 3.5 05:39:27 10° NNW 05:43:44 61° W 05:48:00 10° S
STARLINK-78 4.1 05:40:22 10° WSW 05:44:11 36° NW 05:47:59 10° NNE
CZ-4B R/B 4.1 05:45:51 16° NW 05:46:57 18° WNW 05:49:35 10° WSW
STARLINK-49 4.3 05:43:47 10° WSW 05:47:32 33° NW 05:51:16 10° N
STARLINK-27 4.3 05:45:30 10° WSW 05:49:12 31° NW 05:52:53 10° N
STARLINK-74 4.4 05:47:09 10° WSW 05:50:48 30° NW 05:54:27 10° N
Mugunghwa Rocket 4.0 05:45:39 15° WNW 05:51:00 78° SSW 05:57:36 10° ESE
Milstar 3 Cent rocket 3.1 05:43:47 11° NW 05:51:33 51° NNE 05:56:28 10° E
Cosmos 1656 3.6 05:46:55 10° NNW 05:52:21 85° WSW 05:57:50 10° SSE
STARLINK-39 4.5 05:48:52 10° WSW 05:52:27 29° NW 05:56:03 10° N
Cosmos 773 Rocket 4.4 05:50:27 10° NNW 05:55:26 44° WSW 06:00:26 10° S
SJ-12 4.1 05:54:05 10° N 05:58:04 50° WNW 06:02:05 10° SSW
Lacrosse 4 Rocket 1.4 05:54:46 10° NNW 05:58:59 87° WSW 06:03:19 10° SSE
Cosmos 2151 2.9 05:54:56 10° S 05:59:12 82° W 06:03:29 10° N
Ariane H10 0.1 05:59:03 14° W 06:00:13 75° N 06:03:24 10° E
NOSS 3-1 (A) 4.5 05:52:56 10° NW 06:01:22 56° WSW 06:09:57 10° S
ALOS 2.2 05:57:53 10° N 06:02:30 67° WNW 06:07:08 10° SSW
Cosmos 1459 Rocket 3.9 05:59:27 10° S 06:05:29 70° W 06:11:35 10° N
Cosmos 2150 Rocket 4.2 06:02:06 10° SSW 06:07:33 89° ESE 06:13:00 10° NNE
Okean O Rocket 1.5 06:03:18 10° N 06:07:36 67° WNW 06:11:55 10° SSW
Cosmos 1538 Rocket 4.4 06:02:33 10° NNW 06:07:39 46° WSW 06:12:43 10° S
Cosmos 2016 Rocket 4.3 06:01:36 10° S 06:07:43 75° E 06:13:53 10° N
Ariane H10-3 3.3 06:05:59 10° W 06:09:16 60° S 06:23:49 10° ESE
ATLAS CENTAUR R/B 1.9 06:04:46 10° SW 06:09:27 55° WNW 06:14:15 10° N
ARIANE 44L R/B 4.4 06:11:23 10° WSW 06:20:05 30° S 06:22:56 10° SE
